FW2103 Weather Reports


time (UTC)temp
F
wind
direction
speed
knots
gust
knots
rain 1hr
in
rain 24hr
in
rain mn
in
humidity
%
barometer
mb
20260503212631 62 146 0.0 0.0 0.00 0.00 0.00 37 1015.5
20260503212129 62 160 3.5 4.3 0.00 0.00 0.00 37 1015.3
20260503211626 62 197 2.6 4.3 0.00 0.00 0.00 38 1015.4
20260503211121 63 202 0.0 0.0 0.00 0.00 0.00 41 1015.4
20260503210618 62 181 0.0 0.0 0.00 0.00 0.00 38 1015.2
20260503210114 64 63 4.3 5.2 0.00 0.00 0.00 37 1015.5
20260503205605 64 331 1.7 2.6 0.00 0.00 0.00 38 1015.8
20260503205102 63 29 0.0 0.0 0.00 0.00 0.00 39 1015.4
20260503204558 62 156 0.0 0.0 0.00 0.00 0.00 38 1015.9
20260503204055 62 150 0.9 1.7 0.00 0.00 0.00 40 1015.9
20260503203552 62 177 2.6 4.3 0.00 0.00 0.00 42 1015.7
20260503203050 62 126 6.1 7.0 0.00 0.00 0.00 37 1015.9
20260503202547 61 150 1.7 2.6 0.00 0.00 0.00 37 1016.1
20260503202045 62 175 1.7 4.3 0.00 0.00 0.00 39 1016.1
20260503201543 62 140 4.3 5.2 0.00 0.00 0.00 40 1015.9
20260503201040 61 147 0.0 0.0 0.00 0.00 0.00 43 1016.0
20260503200536 62 168 0.0 0.9 0.00 0.00 0.00 37 1016.3
20260503200033 64 71 0.9 1.7 0.00 0.00 0.00 38 1016.5
20260503195530 63 321 0.0 0.0 0.00 0.00 0.00 35 1016.8
20260503195027 63 74 4.3 7.0 0.00 0.00 0.00 38 1016.9
20260503194525 63 145 0.0 0.0 0.00 0.00 0.00 38 1016.8
20260503194024 62 146 4.3 6.1 0.00 0.00 0.00 41 1017.1
20260503193521 64 306 0.0 0.0 0.00 0.00 0.00 39 1017.1
20260503193016 63 278 0.9 0.9 0.00 0.00 0.00 38 1017.2
20260503192512 61 142 1.7 1.7 0.00 0.00 0.00 42 1017.1
20260503192008 63 290 4.3 8.7 0.00 0.00 0.00 36 1017.3
20260503191506 62 327 2.6 4.3 0.00 0.00 0.00 39 1017.2
20260503191002 62 125 2.6 4.3 0.00 0.00 0.00 37 1017.3
20260503190459 63 118 0.0 0.0 0.00 0.00 0.00 38 1017.3
20260503185956 62 22 0.9 1.7 0.00 0.00 0.00 36 1017.6
20260503185452 62 233 0.0 0.0 0.00 0.00 0.00 43 1017.6
20260503184952 62 157 0.0 0.0 0.00 0.00 0.00 39 1017.9
20260503184448 63 154 2.6 5.2 0.00 0.00 0.00 40 1018.0
20260503183945 62 8 1.7 4.3 0.00 0.00 0.00 37 1017.7
20260503183442 62 304 4.3 7.0 0.00 0.00 0.00 38 1018.0
20260503182938 62 159 0.0 0.0 0.00 0.00 0.00 37 1017.8
20260503182437 62 285 3.5 4.3 0.00 0.00 0.00 38 1018.1
20260503181935 62 6 2.6 2.6 0.00 0.00 0.00 39 1018.0
20260503181432 62 2 0.9 1.7 0.00 0.00 0.00 39 1018.0
20260503180927 62 358 0.9 1.7 0.00 0.00 0.00 38 1018.0
20260503180427 61 76 0.0 0.0 0.00 0.00 0.00 43 1017.8
20260503175922 60 135 0.0 0.0 0.00 0.00 0.00 41 1018.2
20260503175421 59 165 0.0 0.0 0.00 0.00 0.00 40 1018.3
20260503174916 59 132 0.0 0.0 0.00 0.00 0.00 39 1018.5
20260503174415 60 156 0.0 0.0 0.00 0.00 0.00 39 1018.5
20260503173914 60 82 0.9 1.7 0.00 0.00 0.00 39 1018.3
20260503173411 61 129 0.0 0.0 0.00 0.00 0.00 42 1018.7
20260503172908 60 137 0.0 0.0 0.00 0.00 0.00 39 1018.6
20260503172405 59 147 3.5 4.3 0.00 0.00 0.00 41 1018.8
20260503171901 60 168 0.0 0.0 0.00 0.00 0.00 41 1019.0
20260503171358 60 164 0.0 0.0 0.00 0.00 0.00 39 1018.7
20260503170855 60 205 0.0 0.0 0.00 0.00 0.00 40 1019.3
20260503170352 60 125 0.0 0.0 0.00 0.00 0.00 40 1019.0
20260503150744 54 183 0.0 0.0 0.00 0.00 0.00 53 1020.4
20260503150240 54 344 0.0 0.0 0.00 0.00 0.00 54 1020.4
20260503140204 49 150 0.9 1.7 0.00 0.00 0.00 62 1020.4
20260503131134 44 160 0.0 1.7 0.00 0.00 0.00 72 1020.3
20260503130632 43 141 0.0 0.0 0.00 0.00 0.00 74 1020.6
20260503130129 43 136 0.0 0.0 0.00 0.00 0.00 76 1020.3
20260503110522 34 73 0.0 0.0 0.00 0.00 0.00 89 1019.9
20260503090409 35 28 0.0 0.0 0.00 0.00 0.00 90 1018.7
20260503081335 36 28 0.0 0.0 0.00 0.00 0.00 89 1018.9
20260503080832 36 28 0.0 0.0 0.00 0.00 0.00 89 1018.9
20260503080329 36 28 0.0 0.0 0.00 0.00 0.00 88 1018.7
20260503072805 36 28 0.0 0.0 0.00 0.00 0.00 85 1018.7
20260503072305 35 28 0.0 0.0 0.00 0.00 0.00 84 1018.7
20260503071758 35 28 0.0 0.0 0.00 0.00 0.00 84 1018.5
20260503071256 36 28 0.0 0.0 0.00 0.00 0.00 84 1018.5
20260503070752 35 28 0.0 0.0 0.00 0.00 0.00 83 1018.6
20260503070250 36 28 0.0 0.0 0.00 0.00 0.00 84 1018.5
20260503060221 37 28 0.0 0.0 0.00 0.00 0.00 84 1019.0
20260503054707 37 28 0.0 0.0 0.00 0.00 0.00 84 1018.9
20260503054205 38 28 0.0 0.0 0.00 0.00 0.00 83 1018.9
20260503053703 38 28 0.0 0.0 0.00 0.00 0.00 82 1019.0
20260503053201 38 28 0.0 0.0 0.00 0.00 0.00 80 1019.1
20260503052657 38 28 0.0 0.0 0.00 0.00 0.00 79 1019.3
20260503052154 38 28 0.0 0.0 0.00 0.00 0.00 79 1019.1
20260503051649 38 28 0.0 0.0 0.00 0.00 0.00 77 1018.9
20260503051147 39 28 0.0 0.0 0.00 0.00 0.00 77 1019.0
20260503050643 39 28 0.0 0.0 0.00 0.00 0.00 76 1019.1
20260503050140 39 28 0.0 0.0 0.00 0.00 0.00 76 1019.4
20260503045637 39 28 0.0 0.0 0.00 0.00 0.00 77 1019.1
20260503045134 39 28 0.0 0.0 0.00 0.00 0.00 76 1019.0
20260503044631 39 28 0.0 0.0 0.00 0.00 0.00 77 1019.0
20260503044129 39 28 0.0 0.0 0.00 0.00 0.00 76 1019.1
20260503043625 39 28 0.0 0.0 0.00 0.00 0.00 77 1019.3
20260503043122 39 28 0.0 0.0 0.00 0.00 0.00 76 1019.1
20260503042619 39 28 0.0 0.0 0.00 0.00 0.00 78 1019.0
20260503042114 39 28 0.0 0.0 0.00 0.00 0.00 80 1019.0
20260503041611 39 28 0.0 0.0 0.00 0.00 0.00 79 1019.1
20260503041109 39 28 0.0 0.0 0.00 0.00 0.00 80 1019.1
20260503040606 39 28 0.0 0.0 0.00 0.00 0.00 80 1019.4
20260503040103 39 28 0.0 0.0 0.00 0.00 0.00 80 1019.3
20260503035600 39 28 0.0 0.0 0.00 0.00 0.00 80 1019.1
20260503035058 39 28 0.0 0.0 0.00 0.00 0.00 80 1018.9
20260503034555 40 28 0.0 0.0 0.00 0.00 0.00 80 1019.3
20260503034052 40 28 0.0 0.0 0.00 0.00 0.00 81 1019.1
20260503033549 40 28 0.0 0.0 0.00 0.00 0.00 79 1019.0
20260503033047 40 30 0.0 0.0 0.00 0.00 0.00 81 1018.8
20260503032545 40 30 0.0 0.0 0.00 0.00 0.00 79 1018.9
20260503032043 41 30 0.0 0.0 0.00 0.00 0.00 80 1019.3
20260503031540 41 30 0.0 0.0 0.00 0.00 0.00 79 1019.0
20260503031037 41 30 0.0 0.0 0.00 0.00 0.00 77 1019.1
20260503030533 42 30 0.0 0.0 0.00 0.00 0.00 74 1019.0
20260503030031 42 31 0.0 0.0 0.00 0.00 0.00 75 1019.1
20260503025527 42 31 0.0 0.0 0.00 0.00 0.00 70 1019.3
20260503025025 42 28 0.0 0.0 0.00 0.00 0.00 70 1018.9
20260503024521 43 29 0.0 0.0 0.00 0.00 0.00 70 1018.8
20260503024019 43 38 0.0 0.0 0.00 0.00 0.00 69 1018.7
20260503023515 44 38 0.0 0.0 0.00 0.00 0.00 67 1018.8
20260503023013 44 26 0.0 0.0 0.00 0.00 0.00 64 1018.6
20260503022508 44 21 0.0 0.0 0.00 0.00 0.00 62 1018.7
20260503022003 44 37 0.0 0.0 0.00 0.00 0.00 62 1018.7
20260503021500 44 38 0.0 0.0 0.00 0.00 0.00 62 1018.6
20260503020957 44 33 0.0 0.0 0.00 0.00 0.00 61 1018.6
20260503020455 45 26 0.0 0.0 0.00 0.00 0.00 62 1018.3
20260503015951 45 32 0.0 0.0 0.00 0.00 0.00 61 1018.4
20260503015448 45 12 0.0 0.0 0.00 0.00 0.00 61 1018.1
20260503014944 45 34 0.0 0.0 0.00 0.00 0.00 61 1017.9
20260503014441 45 35 0.0 0.0 0.00 0.00 0.00 62 1018.1
20260503013939 45 34 0.0 0.0 0.00 0.00 0.00 61 1018.0
20260503013436 45 39 0.0 0.0 0.00 0.00 0.00 62 1018.0
20260503012933 46 33 0.0 0.0 0.00 0.00 0.00 60 1017.9
20260503012431 46 35 0.0 0.0 0.00 0.00 0.00 60 1018.1
20260503011927 46 41 0.0 0.0 0.00 0.00 0.00 59 1017.7
20260503011424 46 37 0.0 0.0 0.00 0.00 0.00 59 1017.7
20260503010921 46 39 0.0 0.0 0.00 0.00 0.00 60 1017.8
20260503010412 46 40 0.0 0.0 0.00 0.00 0.00 60 1017.4
20260503005909 46 35 0.0 0.0 0.00 0.00 0.00 59 1017.6
20260503005407 47 34 0.0 0.0 0.00 0.00 0.00 58 1017.5
20260503004903 47 29 0.0 0.0 0.00 0.00 0.00 57 1017.5
20260503004400 48 35 0.0 0.0 0.00 0.00 0.00 57 1017.4
20260503003857 48 33 0.0 0.0 0.00 0.00 0.00 57 1017.3
20260503003354 48 29 0.0 0.0 0.00 0.00 0.00 55 1017.4
20260503002851 49 34 0.0 0.0 0.00 0.00 0.00 53 1017.1
20260503002349 50 26 0.0 0.0 0.00 0.00 0.00 53 1017.1
20260503001844 50 26 0.0 0.0 0.00 0.00 0.00 51 1017.1
20260503001341 50 27 0.0 0.0 0.00 0.00 0.00 52 1017.1
20260503000838 51 17 0.0 0.9 0.00 0.00 0.00 52 1017.0
20260503000336 51 35 0.0 0.0 0.00 0.00 0.00 51 1016.8
20260502235832 52 6 0.0 0.9 0.00 0.00 0.00 51 1016.9
20260502235330 52 17 0.0 0.0 0.00 0.00 0.00 50 1016.8
20260502234827 52 312 0.9 1.7 0.00 0.00 0.00 53 1016.9
20260502234323 52 17 0.0 0.0 0.00 0.00 0.00 53 1016.7
20260502233820 52 23 0.0 0.0 0.00 0.00 0.00 51 1016.7
20260502233316 52 20 0.0 0.0 0.00 0.00 0.00 51 1016.7
20260502232813 52 344 0.0 0.9 0.00 0.00 0.00 51 1016.6
20260502232305 52 7 0.0 0.9 0.00 0.00 0.00 51 1016.5
20260502231800 52 2 0.0 0.9 0.00 0.00 0.00 51 1016.6
20260502231258 53 27 0.0 0.0 0.00 0.00 0.00 50 1016.7
20260502230756 53 33 0.9 1.7 0.00 0.00 0.00 50 1016.5
20260502230254 53 292 1.7 2.6 0.00 0.00 0.00 49 1016.4
20260502225750 53 357 0.9 0.9 0.00 0.00 0.00 50 1016.6
20260502225247 53 23 0.0 0.9 0.00 0.00 0.00 54 1016.8
20260502224743 53 40 0.0 0.9 0.00 0.00 0.00 52 1016.7
20260502224235 53 348 0.9 0.9 0.00 0.00 0.00 52 1016.6
20260502223732 53 337 0.9 1.7 0.00 0.00 0.00 53 1016.6
20260502223230 53 70 0.0 0.0 0.00 0.00 0.00 55 1016.7
20260502222728 52 11 0.0 0.9 0.00 0.00 0.00 53 1016.8
20260502222224 52 16 0.0 0.9 0.00 0.00 0.00 53 1016.8
20260502221720 52 11 0.0 0.0 0.00 0.00 0.00 53 1016.9
20260502221217 52 7 0.0 0.0 0.00 0.00 0.00 52 1016.6
20260502220713 53 25 0.0 0.9 0.00 0.00 0.00 52 1016.5
20260502220209 53 26 0.9 1.7 0.00 0.00 0.00 52 1016.6
20260502215707 53 78 0.0 0.0 0.00 0.00 0.00 53 1016.8
20260502215203 53 338 1.7 1.7 0.00 0.00 0.00 51 1016.6
20260502214701 53 14 0.0 0.0 0.00 0.00 0.00 51 1016.5
20260502214158 54 20 0.0 0.9 0.00 0.00 0.00 51 1016.6
20260502213655 54 351 0.0 0.9 0.00 0.00 0.00 49 1016.6
20260502213152 54 353 0.0 0.9 0.00 0.00 0.00 50 1016.6
20260502212651 55 16 1.7 2.6 0.00 0.00 0.00 50 1016.6